Find Kosmos-1470

NORAD ID: 14147 Int'l Des: 1983-061 Owner: GRU Country: SU operational
LEOCIRCULARPOLAR

Live-Position

3D-Globus wird geladen...

Über Kosmos-1470

Beschreibung wird geladen...

Nächste Überflüge

Passes for default location (London). Set your location on the main map for personalized predictions.

Höhenverlauf

Loading altitude history...

Zweizeiliger Elementsatz

1 14147U 83061A 26132.23900759 .00010084 00000-0 20382-3 0 9995
2 14147 82.4690 51.2779 0009238 121.8649 238.3500 15.46261676 97542
Epoch: 12. Mai 2026 • Age: 7 hours

Aktueller Status

Höhe 436.0 km
Geschwindigkeit 7.66 km/s
Subsatellitenpunkt 80.60°N, 48.6°E
Startdatum 22. Juni 1983
Alter 42.8 years
Typ other

Technische Details

Klassifizierung Payload
Masse 1750.00 kg
Trockenmasse 1750.00 kg
Gesamtmasse 1750.00 kg
Länge 3.20 m
Durchmesser 1.30 m
Spannweite 13.10 m
Form Cyl + Ant
Hersteller YUZH
Bus-Typ Tselina-D
Phasenstatus In Orbit
Besitzer/Staat GRU/SU

Most Searched